CAPE
0 0 0 0 0 0 0 0 0 0 0 0 0 0 0 0 0 0 0 0 0 0 0 0 0 0 0 0 0 0 0 0 0 0 0 0 0 0 0 0 0 0 0 0 0
0 0 0 0 0 0 0 0 0 0 0 0 0 0 0 0 0 0 0 0 0 0 0 0 0 0 0 0 0 0 0 0 0 0 0 0 0 0 0 0 0 0 0 0 0
0 0 0 0 0 0 0 0 0 0 0 0 0 0 0 0 0 0 0 0 0 0 0 0 0 0 0 0 0 0 0 0 0 0 0 0 0 0 0 0 0 0 0 0 0
0 0 0 0 0 0 0 0 0 0 0 0 0 0 0 0 0 0 0 0 0 0 0 0 0 0 0 0 0 0 0 0 0 0 0 0 0 0 0 0 0 0 0 0 0
0 0 0 0 0 0 0 0 0 0 0 0 0 0 0 0 0 0 0 0 0 0 0 0 0 0 0 0 0 0 0 0 0 0 0 0 0 0 0 0 0 0 0 1 0
0 0 0 0 0 0 0 0 0 0 0 0 0 0 0 0 0 0 0 0 0 0 0 0 0 0 0 0 0 0 0 0 0 0 0 0 0 0 0 0 0 0 0 2 2
0 0 0 0 0 0 0 0 0 0 0 0 0 0 0 0 0 0 0 0 0 0 0 0 0 0 0 0 0 0 0 0 0 0 0 0 0 0 0 0 0 0 0 1 1
2 0 0 0 0 0 0 0 0 0 0 0 0 0 0 0 0 0 0 0 0 0 0 0 0 0 0 0 0 0 0 0 0 0 0 0 0 0 0 0 0 0 0 0 0
1 0 0 0 0 0 0 0 0 0 0 0 0 0 0 0 0 0 0 0 0 0 0 0 0 0 0 0 0 0 0 0 0 0 0 0 0 0 0 0 0 0 0 0 1
0 0 0 0 0 0 0 0 0 0 0 0 0 0 0 0 0 0 0 0 0 0 0 0 0 0 0 0 0 0 0 0 0 0 0 0 0 0 0 0 0 0 0 0 1
0 0 0 0 0 0 0 0 0 0 0 0 0 0 0 0 0 0 0 0 0 0 0 0 0 0 0 0 0 0 0 0 0 0 0 0 0 0 0 0 0 0 0 1 1
0 0 0 0 0 0 0 0 0 0 0 0 0 0 0 0 0 0 0 0 0 0 0 0 0 0 0 0 0 0 0 0 0 0 0 0 0 0 0 0 0 0 0 0 0
0 0 0 0 0 0 0 0 0 0 0 0 0 0 0 0 0 0 0 0 0 0 0 0 0 0 0 0 0 0 0 0 0 0 0 0 0 0 0 0 0 0 0 0 0
0 0 0 0 0 0 0 0 0 0 0 0 0 0 0 0 0 0 0 0 0 0 0 0 0 0 0 0 0 0 0 0 0 0 0 0 0 0 0 0 0 0 0 0 0
0 0 0 0 0 0 0 0 0 0 0 0 0 0 0 0 0 0 0 0 0 0 0 0 0 0 0 0 0 0 0 0 0 0 0 0 0 0 0 0 0 0 0 0 0
0 0 0 0 0 0 0 0 0 0 0 0 0 0 0 0 0 0 0 0 0 0 0 0 0 0 0 0 0 0 0 0 0 0 0 0 0 0 0 0 0 0 0 0 0
6 0 0 0 0 0 0 0 0 0 0 0 0 0 0 0 0 0 0 0 0 0 0 0 0 0 0 0 0 0 0 0 0 0 0 0 0 0 0 0 0 0 0 0 0
4 0 0 0 0 0 0 0 0 0 0 0 0 0 0 0 0 0 0 0 0 0 0 0 0 0 0 0 0 0 0 0 0 0 0 0 0 0 0 0 0 0 0 0 0
0 0 0 0 0 0 0 0 0 0 0 0 0 0 0 0 0 0 0 0 0 0 0 0 0 0 0 0 0 0 0 0 0 0 0 0 0 0 0 0 0 0 0 0 0
0 0 0 0 0 0 0 0 0 0 0 0 0 0 0 0 0 0 0 0 0 0 0 0 0 0 0 0 0 0 0 0 0 0 0 0 0 0 0 0 0 0 0 0 0
0 0 0 0 0 0 0 0 0 0 0 0 0 0 0 0 0 0 0 0 0 0 0 0 0 0 0 0 0 0 0 0 0 0 0 0 0 0 0 0 0 0 0 0 0
0 0 0 0 0 0 0 0 0 0 0 0 0 0 0 0 0 0 0 0 0 0 0 0 0 0 0 0 0 0 0 0 0 0 0 0 0 0 0 0 0 0 0 0 0
0 0 0 0 0 0 0 0 0 0 0 0 0 0 0 0 0 0 0 0 0 0 0 0 0 0 0 0 0 0 0 0 0 0 0 0 0 0 0 0 0 0 0 0 0
0 0 0 0 0 0 0 0 0 0 0 0 0 0 0 0 0 0 0 0 0 0 0 0 0 0 0 0 0 0 0 0 0 0 0 0 0 0 0 0 0 0 0 0 0
0 0 0 0 0 0 0 0 0 0 0 0 0 0 0 0 0 0 0 0 0 0 0 0 0 0 0 0 0 0 0 0 0 0 0 0 0 0 0 0 0 0 0 0 0
0 0 0 0 0 0 0 0 0 0 0 0 0 0 0 0 0 0 0 0 0 0 0 0 0 0 0 0 0 0 0 0 0 0 0 0 0 0 0 0 0 0 0 0 0
0 0 0 0 0 0 0 0 0 0 0 0 0 0 0 0 0 0 0 0 0 0 0 0 0 0 0 0 0 0 0 0 0 0 0 0 0 0 0 0 0 0 0 0 0
CIN
0 0 0 0 0 0 0 0 0 0 0 0 0 0 0 0 0 0 0 0 0 0 0 0 0 0 0 0 0 0 0 0 0 0 0 0 0 0 0 0 0 0 0 0 0
0 0 0 0 0 0 0 0 0 0 0 0 0 0 0 0 0 0 0 0 0 0 0 0 0 0 0 0 0 0 0 0 0 0 0 0 0 0 0 0 0 0 0 0 0
0 0 0 0 0 0 0 0 0 0 0 0 0 0 0 0 0 0 0 0 0 0 0 0 0 0 0 0 0 0 0 0 0 0 0 0 0 0 0 0 0 0 0 0 0
0 0 0 0 0 0 0 0 0 0 0 0 0 0 0 0 0 0 0 0 0 0 0 0 0 0 0 0 0 0 0 0 0 0 0 0 0 0 0 0 0 0 0 0 0
0 0 0 0 0 0 0 0 0 0 0 0 0 0 0 0 0 0 0 0 0 0 0 0 0 0 0 0 0 0 0 0 0 0 0 0 0 0 0 0 0 0 0 0 0
0 0 0 0 0 0 0 0 0 0 0 0 0 0 0 0 0 0 0 0 0 0 0 0 0 0 0 0 0 0 0 0 0 0 0 0 0 0 0 0 0 0 0 0 0
0 0 0 0 0 0 0 0 0 0 0 0 0 0 0 0 0 0 0 0 0 0 0 0 0 0 0 0 0 0 0 0 0 0 0 0 0 0 0 0 0 0 0 0 0
-2 0 0 0 0 0 0 0 0 0 0 0 0 0 0 0 0 0 0 0 0 0 0 0 0 0 0 0 0 0 0 0 0 0 0 0 0 0 0 0 0 0 0 0 0
-2 0 0 0 0 0 0 0 0 0 0 0 0 0 0 0 0 0 0 0 0 0 0 0 0 0 0 0 0 0 0 0 0 0 0 0 0 0 0 0 0 0 0 0 0
0 0 0 0 0 0 0 0 0 0 0 0 0 0 0 0 0 0 0 0 0 0 0 0 0 0 0 0 0 0 0 0 0 0 0 0 0 0 0 0 0 0 0 0 0
0 0 0 0 0 0 0 0 0 0 0 0 0 0 0 0 0 0 0 0 0 0 0 0 0 0 0 0 0 0 0 0 0 0 0 0 0 0 0 0 0 0 0 0 0
0 0 0 0 0 0 0 0 0 0 0 0 0 0 0 0 0 0 0 0 0 0 0 0 0 0 0 0 0 0 0 0 0 0 0 0 0 0 0 0 0 0 0 0 0
0 0 0 0 0 0 0 0 0 0 0 0 0 0 0 0 0 0 0 0 0 0 0 0 0 0 0 0 0 0 0 0 0 0 0 0 0 0 0 0 0 0 0 0 0
0 0 0 0 0 0 0 0 0 0 0 0 0 0 0 0 0 0 0 0 0 0 0 0 0 0 0 0 0 0 0 0 0 0 0 0 0 0 0 0 0 0 0 0 0
0 0 0 0 0 0 0 0 0 0 0 0 0 0 0 0 0 0 0 0 0 0 0 0 0 0 0 0 0 0 0 0 0 0 0 0 0 0 0 0 0 0 0 0 0
-2 0 0 0 0 0 0 0 0 0 0 0 0 0 0 0 0 0 0 0 0 0 0 0 0 0 0 0 0 0 0 0 0 0 0 0 0 0 0 0 0 0 0 0 0
-3 0 0 0 0 0 0 0 0 0 0 0 0 0 0 0 0 0 0 0 0 0 0 0 0 0 0 0 0 0 0 0 0 0 0 0 0 0 0 0 0 0 0 0 0
-7 0 0 0 0 0 0 0 0 0 0 0 0 0 0 0 0 0 0 0 0 0 0 0 0 0 0 0 0 0 0 0 0 0 0 0 0 0 0 0 0 0 0 0 0
0 0 0 0 0 0 0 0 0 0 0 0 0 0 0 0 0 0 0 0 0 0 0 0 0 0 0 0 0 0 0 0 0 0 0 0 0 0 0 0 0 0 0 0 0
0 0 0 0 0 0 0 0 0 0 0 0 0 0 0 0 0 0 0 0 0 0 0 0 0 0 0 0 0 0 0 0 0 0 0 0 0 0 0 0 0 0 0 0 0
0 0 0 0 0 0 0 0 0 0 0 0 0 0 0 0 0 0 0 0 0 0 0 0 0 0 0 0 0 0 0 0 0 0 0 0 0 0 0 0 0 0 0 0 0
0 0 0 0 0 0 0 0 0 0 0 0 0 0 0 0 0 0 0 0 0 0 0 0 0 0 0 0 0 0 0 0 0 0 0 0 0 0 0 0 0 0 0 0 0
0 0 0 0 0 0 0 0 0 0 0 0 0 0 0 0 0 0 0 0 0 0 0 0 0 0 0 0 0 0 0 0 0 0 0 0 0 0 0 0 0 0 0 0 0
0 0 0 0 0 0 0 0 0 0 0 0 0 0 0 0 0 0 0 0 0 0 0 0 0 0 0 0 0 0 0 0 0 0 0 0 0 0 0 0 0 0 0 0 0
0 0 0 0 0 0 0 0 0 0 0 0 0 0 0 0 0 0 0 0 0 0 0 0 0 0 0 0 0 0 0 0 0 0 0 0 0 0 0 0 0 0 0 0 0
0 0 0 0 0 0 0 0 0 0 0 0 0 0 0 0 0 0 0 0 0 0 0 0 0 0 0 0 0 0 0 0 0 0 0 0 0 0 0 0 0 0 0 0 0
0 0 0 0 0 0 0 0 0 0 0 0 0 0 0 0 0 0 0 0 0 0 0 0 0 0 0 0 0 0 0 0 0 0 0 0 0 0 0 0 0 0 0 0 0
Wind_Speed
20 21 22 22 23 24 24 24 25 26 26 25 23 23 24 26 25 25 24 24 19 15 16 16 18 18 20 19 19 16 19 19 19 20 17 26 27 26 25 30 28 30 34 39 44
20 21 21 22 23 23 24 24 25 25 26 25 23 22 23 24 20 24 26 25 21 18 22 22 22 22 19 19 19 19 18 18 19 19 20 25 26 29 28 32 31 38 39 41 42
20 21 21 22 23 23 23 24 24 25 25 24 23 21 22 21 18 22 27 24 22 24 15 16 17 19 21 21 21 19 18 17 21 21 20 23 25 26 31 34 35 44 47 46 41
20 21 21 22 23 23 23 24 25 25 25 24 22 21 20 18 18 21 26 24 24 25 19 18 18 19 20 21 20 19 21 20 19 20 20 22 23 28 32 32 36 43 44 41 39
20 20 21 22 23 23 24 25 25 25 24 24 22 21 18 19 18 22 24 25 24 23 22 20 21 19 19 20 22 21 18 19 19 20 20 20 25 25 31 31 35 41 38 38 35
19 19 20 22 23 23 24 25 25 24 24 22 22 21 17 17 17 21 22 23 24 24 22 21 20 21 21 20 21 19 18 19 21 22 21 23 22 25 26 31 36 40 41 36 36
19 19 20 21 23 24 25 25 25 23 21 21 20 19 18 16 18 20 20 20 22 22 21 21 20 18 19 21 20 19 19 17 21 22 22 20 23 29 26 30 37 41 38 40 34
19 19 19 21 23 24 24 25 23 21 20 19 19 17 17 15 17 19 19 17 19 19 20 20 20 21 20 19 19 19 20 21 21 25 20 23 26 26 27 33 37 39 40 44 37
19 19 19 20 22 23 24 23 21 20 19 18 17 16 16 15 16 18 18 16 17 17 18 17 19 20 19 20 20 22 20 20 21 23 26 25 26 25 28 32 32 30 38 42 19
18 18 18 19 21 23 25 21 19 20 17 16 15 16 15 15 16 16 16 16 15 16 17 18 19 20 22 20 20 20 21 20 20 23 26 23 23 23 26 30 29 26 31 25 12
17 17 17 19 21 22 21 17 18 20 19 18 15 14 14 14 15 16 15 15 15 16 16 18 19 21 22 23 21 21 22 20 18 18 23 23 21 22 23 27 28 26 19 12 15
16 16 17 18 20 20 17 18 17 15 19 16 15 14 14 14 13 15 16 13 14 15 16 17 19 19 20 21 21 21 22 21 17 17 20 21 23 23 24 27 26 24 15 15 11
16 15 16 18 19 17 16 16 14 15 18 17 15 14 12 14 12 13 13 12 14 15 15 16 17 18 18 19 19 19 21 21 17 16 18 20 23 26 26 27 24 25 25 25 17
16 14 15 16 17 15 16 13 12 14 19 17 15 15 13 13 12 13 12 11 12 14 16 15 18 17 18 19 18 22 20 19 18 20 23 21 25 25 25 27 26 26 23 21 18
14 13 13 13 16 14 14 11 12 14 22 14 13 14 12 10 10 12 11 11 12 13 13 15 16 17 18 18 18 20 18 19 20 20 20 23 23 23 23 24 23 24 22 22 21
14 12 12 15 16 13 11 10 12 18 23 13 12 10 9 11 11 9 10 10 9 11 13 13 17 17 17 16 17 18 19 19 20 21 23 20 23 22 23 22 22 22 21 21 22
13 11 13 14 16 11 9 10 18 22 16 16 13 10 9 9 10 7 6 6 11 19 15 12 14 16 17 18 17 19 21 23 23 23 23 19 19 17 18 19 20 22 21 19 21
12 12 17 16 14 9 11 16 24 19 17 15 12 8 11 9 11 6 5 16 14 11 16 17 16 15 17 18 17 17 19 21 24 22 20 18 20 18 16 18 19 19 21 22 22
12 17 18 17 15 14 15 24 21 19 14 11 11 11 12 15 10 8 5 14 13 9 9 15 16 15 17 17 17 17 19 19 22 21 20 20 17 15 15 15 16 17 19 19 21
18 19 22 17 16 17 22 26 22 16 15 15 15 15 8 9 9 8 7 12 11 11 12 9 13 14 15 16 16 18 17 20 19 24 22 18 17 16 15 13 13 14 16 17 18
20 23 20 16 17 22 27 26 22 20 18 17 18 15 15 12 11 11 8 14 11 9 13 9 11 11 14 14 16 17 18 18 18 20 21 20 16 15 14 13 13 13 13 14 16
24 29 20 18 24 27 29 24 20 21 20 19 17 15 13 11 14 14 9 11 12 8 8 12 11 10 12 14 14 15 16 17 20 19 17 18 15 14 15 13 13 12 11 12 13
27 24 21 25 31 29 26 27 24 21 23 20 18 16 15 12 16 14 13 13 11 11 9 10 12 10 13 13 13 12 13 15 17 18 15 17 17 12 12 13 11 10 10 10 10
27 29 27 32 30 29 26 28 28 24 24 20 18 15 14 14 16 12 11 12 11 12 11 11 11 14 9 12 13 12 12 11 14 17 16 9 10 12 8 7 8 7 6 7 7
32 34 30 35 37 29 26 24 26 26 26 22 22 19 16 16 16 14 12 9 11 11 12 12 14 16 17 13 11 8 8 7 6 10 14 15 12 8 8 7 4 4 4 4 4
37 34 31 31 31 30 30 34 25 28 22 27 25 17 18 19 18 12 9 12 12 10 10 12 15 17 20 16 14 7 4 3 5 5 4 3 7 11 9 9 5 2 3 2 2
37 30 29 34 32 34 36 29 27 23 28 25 21 18 20 20 13 7 10 6 6 8 10 11 12 16 17 16 21 19 7 3 9 10 11 13 14 16 17 16 17 7 3 2 1
Wind_Direction
313 318 318 321 321 320 323 326 329 337 348 5 17 11 355 346 360 11 360 4 7 272 274 43 44 39 36 39 41 46 12 7 7 6 8 350 350 353 355 348 351 348 335 326 324
310 314 316 317 319 319 323 323 327 334 351 1 14 17 5 354 20 5 1 325 299 286 13 14 18 22 33 32 35 27 20 22 23 15 8 356 358 353 357 353 353 342 334 330 328
306 309 313 314 315 318 322 324 326 334 354 358 9 18 9 1 14 2 334 319 306 332 57 51 45 42 30 33 28 36 32 43 22 17 15 8 6 10 360 352 352 338 328 333 336
305 307 310 313 315 316 321 324 330 339 349 354 3 14 13 13 3 358 331 323 321 352 31 43 41 32 34 28 41 44 36 36 35 27 23 18 17 7 5 1 353 341 342 346 344
302 308 310 312 314 319 324 327 335 341 345 349 1 4 17 9 7 351 337 341 358 14 9 27 24 37 35 47 41 44 51 48 41 28 29 26 14 12 7 5 359 353 358 356 356
301 306 311 313 316 318 325 327 333 336 339 350 356 359 12 0 7 349 350 356 356 11 10 21 44 54 45 45 41 57 61 51 33 29 31 20 22 18 16 9 1 360 2 3 2
299 303 308 313 313 315 318 323 327 337 345 352 358 6 6 6 356 342 347 11 4 7 26 27 43 55 60 49 60 63 43 44 29 30 25 30 17 16 21 17 8 5 10 7 9
294 302 307 311 313 317 321 326 333 340 345 348 352 4 359 8 357 345 341 20 1 13 44 56 36 44 45 64 61 48 46 35 29 25 35 29 19 23 23 17 13 15 14 11 19
290 298 306 312 316 321 323 328 334 339 343 348 351 357 350 356 355 347 356 8 360 50 60 76 48 48 55 50 52 44 41 39 32 35 28 31 25 26 26 21 25 29 22 15 36
288 297 305 310 316 321 318 327 333 334 347 350 351 344 347 348 348 351 349 360 22 31 49 45 41 42 27 54 53 49 45 42 35 30 30 37 32 30 33 30 35 37 37 42 20
284 293 302 307 312 319 321 330 328 325 331 327 336 338 345 341 344 337 341 347 37 42 42 40 44 39 48 48 59 62 49 44 42 43 39 40 39 40 43 41 43 46 52 359 60
280 287 295 304 311 314 321 319 325 333 322 334 332 331 333 334 351 330 317 11 27 39 55 47 47 68 66 64 64 63 48 47 55 52 51 49 48 51 52 48 54 57 61 65 39
272 281 291 299 307 313 315 318 333 333 320 319 316 321 329 320 343 335 338 24 34 38 61 57 72 95 70 70 66 63 53 51 61 57 69 58 55 53 58 57 66 65 65 65 74
264 273 285 295 300 308 308 320 329 332 310 309 308 309 313 313 331 329 330 20 37 63 56 26 104 87 75 65 71 55 61 57 64 64 59 62 54 57 63 63 65 66 71 73 79
255 266 279 287 295 297 309 317 319 322 293 313 307 303 305 317 340 322 330 13 52 68 41 57 70 73 68 69 72 61 68 67 66 71 67 58 63 64 70 68 75 75 79 80 83
245 255 272 277 288 296 302 305 311 290 280 308 312 308 305 300 310 336 340 337 351 22 348 25 103 71 75 74 74 67 68 73 69 68 64 67 65 68 68 73 80 85 89 91 90
232 245 261 271 273 281 284 291 279 270 292 288 296 300 297 296 298 340 353 19 274 131 102 23 12 67 78 72 72 64 59 55 57 60 64 71 71 76 80 85 87 90 96 100 96
223 243 257 263 268 263 270 271 264 279 274 286 290 287 288 283 286 319 334 263 280 299 104 118 131 74 62 72 91 81 69 61 50 56 66 72 70 73 88 92 98 104 98 98 97
216 246 252 258 258 257 256 258 268 269 278 268 275 280 279 265 290 291 303 272 274 301 337 99 107 66 67 81 86 86 80 75 64 61 61 63 72 85 91 100 99 101 101 101 97
230 244 249 250 249 252 252 256 263 270 270 263 269 271 267 260 282 279 278 280 284 288 299 355 44 63 64 87 90 83 87 66 71 52 53 59 65 75 83 101 111 102 97 102 103
230 238 246 243 247 246 249 255 260 260 263 261 264 268 269 261 267 268 274 277 277 294 288 329 343 46 50 88 76 75 71 73 75 65 53 50 67 80 82 90 105 115 102 94 94
227 238 238 236 238 246 247 255 260 254 258 262 265 272 265 259 261 263 268 287 276 291 316 306 337 17 42 41 76 75 72 67 51 56 63 55 63 75 68 84 94 100 108 102 94
224 241 243 241 238 241 251 250 255 252 251 255 260 265 268 258 261 262 268 277 278 284 303 312 321 349 12 15 37 75 70 68 55 54 63 60 55 90 74 61 76 88 96 105 105
227 233 241 240 247 239 240 246 245 252 249 255 257 261 260 257 266 260 267 276 277 287 300 302 314 312 5 16 38 54 58 62 46 32 39 57 51 54 82 77 51 65 96 106 105
226 239 239 235 237 240 238 245 239 245 249 248 253 254 252 255 257 265 266 273 281 289 298 302 303 301 308 343 4 44 52 48 45 29 23 26 33 43 41 36 94 106 72 105 121
226 236 236 244 232 235 236 238 235 239 240 244 251 240 249 255 256 250 255 265 274 278 293 301 299 302 298 321 338 2 18 36 21 10 338 317 273 20 40 44 40 272 168 151 172
231 235 236 237 231 233 236 235 235 236 243 251 239 242 246 256 266 279 275 267 280 278 281 295 299 303 313 326 321 332 360 94 18 19 11 4 6 11 7 12 7 26 160 202 274